Regional Weather Roundup
Issued by NWS

Home | Current Version | Previous Version | Text Only | Print | Product List | Glossary Off
Versions: 1 2 3 4 5 6 7 8 9 10 11 12 13 14 15 16 17 18 19 20 21 22 23 24 25 26 27 28 29 30 31 32 33 34 35 36 37 38 39 40 41 42 43 44 45 46 47 48 49 50

000
ASUS45 KBOI 030910
RWRID
WEATHER ROUNDUP FOR IDAHO
NATIONAL WEATHER SERVICE BOISE ID
300 AM MDT SUN MAY 03 2015

NOTE: "FAIR" INDICATES FEW OR NO CLOUDS BELOW 12000 FEET
WITH NO SIGNIFICANT WEATHER AND/OR OBSTRUCTIONS TO VISIBILITY

IDZ012-014-031000-
SOUTHWEST IDAHO


CITY           SKY/WX    TMP DP  RH WIND       PRES   REMARKS
BOISE          PTCLDY    52  35  52 CALM      29.84R
CALDWELL       PTCLDY    55  28  35 W8        29.86R
MOUNTAIN HOME  CLOUDY    51  29  41 NW7       29.83R
$$

IDZ016-017-031000-
SOUTHCENTRAL IDAHO


CITY           SKY/WX    TMP DP  RH WIND       PRES   REMARKS
BURLEY         MOCLDY    50  38  63 SW5       29.84F
JEROME         MOCLDY    58  31  35 S5        29.85F
TWIN FALLS     MOCLDY    56  34  43 S13       29.85F
$$

IDZ019>023-031000-
SOUTHEAST IDAHO


CITY           SKY/WX    TMP DP  RH WIND       PRES   REMARKS
IDAHO FALLS    MOCLDY    56  26  31 W8G22     29.89R
POCATELLO      CLEAR     47  29  49 NE13      29.87S
REXBURG        PTCLDY    44  30  57 NE3       29.89R
$$

IDZ006-010-011-018-031-032-031000-
CENTRAL IDAHO MOUNTAINS


CITY           SKY/WX    TMP DP  RH WIND       PRES   REMARKS
MCCALL         MOCLDY    44  31  60 N6        29.92S
HAILEY         CLOUDY    52  28  40 NW10      29.93S
STANLEY          N/A     30  20  66 SE5       30.00R WCI  25
SALMON         CLEAR     43  27  52 SE3       29.91S
CHALLIS        CLEAR     43  21  41 S5        29.92S
$$

IDZ002-004-006-007-026-031000-
NORTHERN IDAHO


CITY           SKY/WX    TMP DP  RH WIND       PRES   REMARKS
LEWISTON       CLEAR     48  28  46 CALM      29.93S
LOWELL           N/A     42  35  76 N3        29.99R
COEUR D`ALENE  CLEAR     45  28  53 NE16      29.97S
MULLAN PASS    CLEAR     37  17  44 N3        29.98S
$$



USA.gov is the U.S. government's official web portal to all federal, state and local government web resources and services.